• In Russia
  • List of Countries
  • For 7 days
  • Water Temperature
  • Satellite Maps
  • Weather Map
  • Weather Widgets
  • user-avatar
    Login

    Hourly Weather Jankowice

    Today, 20 February, Wednesday

    Time Temperature Precipitation Wind Pressure Humidity
    00:00 +3°C° 0 mm 5 mps 753 mmHg 85%
    01:00 +3°C° 0 mm 4 mps 753 mmHg 88%
    02:00 +2°C° 0 mm 5 mps 753 mmHg 89%
    03:00 +2°C° 0 mm 5 mps 753 mmHg 89%
    04:00 +2°C° 0 mm 5 mps 753 mmHg 90%
    05:00 +2°C° 0 mm 5 mps 754 mmHg 88%
    06:00 +2°C° 0 mm 5 mps 754 mmHg 86%
    07:00 +2°C° 0 mm 5 mps 754 mmHg 84%
    08:00 +3°C° 0 mm 6 mps 755 mmHg 82%
    09:00 +3°C° 0 mm 6 mps 755 mmHg 80%
    10:00 +3°C° 0 mm 6 mps 756 mmHg 78%
    11:00 +4°C° 0 mm 6 mps 756 mmHg 77%
    12:00 +4°C° 0 mm 6 mps 756 mmHg 76%
    13:00 +5°C° 0 mm 5 mps 756 mmHg 75%
    14:00 +5°C° 0 mm 5 mps 756 mmHg 75%
    15:00 +5°C° 0 mm 4 mps 757 mmHg 75%
    16:00 +5°C° 0 mm 4 mps 757 mmHg 75%
    17:00 +5°C° 0 mm 4 mps 757 mmHg 77%
    18:00 +5°C° 0 mm 3 mps 758 mmHg 80%
    19:00 +5°C° 0 mm 3 mps 758 mmHg 82%
    20:00 +4°C° 0 mm 3 mps 758 mmHg 83%
    21:00 +4°C° 0 mm 3 mps 758 mmHg 84%
    22:00 +4°C° 0 mm 3 mps 759 mmHg 85%
    23:00 +4°C° 0 mm 3 mps 759 mmHg 87%

    Tomorrow, 21 February, Thursday

    Time Temperature Precipitation Wind Pressure Humidity
    00:00 +4°C° 0 mm 3 mps 759 mmHg 89%
    01:00 +4°C° 0 mm 3 mps 759 mmHg 91%
    02:00 +4°C° 0 mm 3 mps 759 mmHg 90%
    03:00 +4°C° 0 mm 3 mps 758 mmHg 89%
    04:00 +4°C° 0 mm 4 mps 758 mmHg 88%
    05:00 +4°C° 0.1 mm 4 mps 758 mmHg 87%
    06:00 +4°C° 0.1 mm 4 mps 758 mmHg 86%
    07:00 +4°C° 0.1 mm 4 mps 758 mmHg 85%
    08:00 +3°C° 0.4 mm 5 mps 758 mmHg 85%
    09:00 +3°C° 0.4 mm 5 mps 758 mmHg 84%
    10:00 +4°C° 0.4 mm 6 mps 758 mmHg 84%
    11:00 +4°C° 0.7 mm 6 mps 757 mmHg 84%
    12:00 +4°C° 0.7 mm 6 mps 757 mmHg 84%
    13:00 +4°C° 0.7 mm 7 mps 757 mmHg 84%
    14:00 +4°C° 0.6 mm 6 mps 757 mmHg 85%
    15:00 +4°C° 0.6 mm 6 mps 756 mmHg 85%
    16:00 +5°C° 0.6 mm 6 mps 756 mmHg 86%
    17:00 +5°C° 0.2 mm 6 mps 756 mmHg 87%
    18:00 +5°C° 0.2 mm 6 mps 756 mmHg 88%
    19:00 +5°C° 0.2 mm 6 mps 756 mmHg 88%
    20:00 +5°C° 0.3 mm 6 mps 756 mmHg 89%
    21:00 +5°C° 0.3 mm 6 mps 756 mmHg 89%
    22:00 +5°C° 0.3 mm 6 mps 756 mmHg 90%
    23:00 +5°C° 0 mm 6 mps 756 mmHg 90%

    Day after tomorrow, 22 February, Friday

    Time Temperature Precipitation Wind Pressure Humidity
    00:00 +5°C° 0 mm 6 mps 757 mmHg 90%
    01:00 +5°C° 0 mm 6 mps 757 mmHg 89%
    02:00 +5°C° 0.1 mm 6 mps 758 mmHg 89%
    03:00 +5°C° 0.1 mm 6 mps 758 mmHg 88%
    04:00 +4°C° 0.1 mm 6 mps 759 mmHg 87%
    05:00 +3°C° 0.1 mm 6 mps 760 mmHg 84%
    06:00 0°C° 0.1 mm 7 mps 761 mmHg 81%
    07:00 -2°C° 0.1 mm 7 mps 762 mmHg 78%
    08:00 -2°C° 0 mm 7 mps 764 mmHg 71%
    09:00 -2°C° 0 mm 6 mps 765 mmHg 64%
    10:00 -2°C° 0 mm 6 mps 766 mmHg 57%
    11:00 0°C° 0 mm 5 mps 767 mmHg 54%
    12:00 0°C° 0 mm 5 mps 768 mmHg 50%
    13:00 +1°C° 0 mm 5 mps 768 mmHg 47%
    14:00 0°C° 0 mm 5 mps 769 mmHg 47%
    15:00 0°C° 0 mm 4 mps 769 mmHg 46%
    16:00 0°C° 0 mm 4 mps 770 mmHg 46%
    17:00 -1°C° 0 mm 4 mps 770 mmHg 49%
    18:00 -1°C° 0 mm 3 mps 771 mmHg 52%
    19:00 -2°C° 0 mm 3 mps 771 mmHg 54%
    20:00 -2°C° 0 mm 3 mps 772 mmHg 55%
    21:00 -4°C° 0 mm 3 mps 772 mmHg 55%
    22:00 -4°C° 0 mm 3 mps 773 mmHg 55%
    23:00 -4°C° 0 mm 3 mps 773 mmHg 54%

    23 February, Saturday

    Time Temperature Precipitation Wind Pressure Humidity
    00:00 -4°C° 0 mm 3 mps 773 mmHg 52%
    01:00 -5°C° 0 mm 3 mps 773 mmHg 51%
    02:00 -4°C° 0 mm 2 mps 773 mmHg 50%
    03:00 -4°C° 0 mm 2 mps 773 mmHg 49%
    04:00 -2°C° 0 mm 1 mps 773 mmHg 48%
    05:00 -2°C° 0 mm 1 mps 773 mmHg 48%
    06:00 -4°C° 0 mm 2 mps 773 mmHg 47%
    07:00 -4°C° 0 mm 2 mps 773 mmHg 47%
    08:00 -3°C° 0 mm 2 mps 774 mmHg 41%
    09:00 -3°C° 0 mm 2 mps 774 mmHg 36%
    10:00 -2°C° 0 mm 2 mps 774 mmHg 31%
    11:00 -1°C° 0 mm 2 mps 774 mmHg 29%
    12:00 +1°C° 0 mm 2 mps 774 mmHg 27%
    13:00 +2°C° 0 mm 1 mps 773 mmHg 25%
    14:00 +2°C° 0 mm 1 mps 773 mmHg 27%
    15:00 +2°C° 0 mm 1 mps 773 mmHg 28%
    16:00 +2°C° 0 mm 1 mps 773 mmHg 29%
    17:00 +2°C° 0 mm 1 mps 772 mmHg 32%
    18:00 +1°C° 0 mm 1 mps 772 mmHg 35%
    19:00 0°C° 0 mm 1 mps 772 mmHg 37%
    20:00 0°C° 0 mm 1 mps 772 mmHg 38%
    21:00 0°C° 0 mm 1 mps 772 mmHg 38%
    22:00 -1°C° 0 mm 1 mps 772 mmHg 39%
    23:00 -1°C° 0 mm 1 mps 772 mmHg 39%

    24 February, Sunday

    Time Temperature Precipitation Wind Pressure Humidity
    00:00 -1°C° 0 mm 1 mps 772 mmHg 39%
    01:00 -1°C° 0 mm 1 mps 772 mmHg 39%
    02:00 -1°C° 0 mm 1 mps 771 mmHg 39%
    03:00 -1°C° 0 mm 1 mps 771 mmHg 39%
    04:00 -1°C° 0 mm 1 mps 771 mmHg 39%
    05:00 -1°C° 0 mm 1 mps 771 mmHg 38%
    06:00 -1°C° 0 mm 1 mps 771 mmHg 38%
    07:00 -1°C° 0 mm 1 mps 771 mmHg 37%
    08:00 +1°C° 0 mm 1 mps 771 mmHg 34%
    09:00 +2°C° 0 mm 1 mps 771 mmHg 31%
    10:00 +3°C° 0 mm 1 mps 771 mmHg 28%
    11:00 +4°C° 0 mm 1 mps 771 mmHg 28%
    12:00 +4°C° 0 mm 2 mps 770 mmHg 28%
    13:00 +5°C° 0 mm 2 mps 770 mmHg 28%
    14:00 +5°C° 0 mm 2 mps 770 mmHg 33%
    15:00 +6°C° 0 mm 1 mps 770 mmHg 38%
    16:00 +5°C° 0 mm 1 mps 769 mmHg 42%
    17:00 +4°C° 0 mm 1 mps 769 mmHg 45%
    18:00 +3°C° 0 mm 1 mps 769 mmHg 48%
    19:00 +2°C° 0 mm 1 mps 770 mmHg 51%
    20:00 +2°C° 0 mm 1 mps 770 mmHg 53%
    21:00 +2°C° 0 mm 1 mps 770 mmHg 54%
    22:00 +2°C° 0 mm 1 mps 770 mmHg 56%
    23:00 +1°C° 0 mm 1 mps 770 mmHg 57%

    25 February, Monday

    Time Temperature Precipitation Wind Pressure Humidity
    00:00 +1°C° 0 mm 1 mps 770 mmHg 59%
    01:00 +1°C° 0 mm 1 mps 770 mmHg 61%
    02:00 -1°C° 0 mm 2 mps 769 mmHg 61%
    03:00 -1°C° 0 mm 2 mps 769 mmHg 61%
    04:00 -1°C° 0 mm 2 mps 769 mmHg 61%
    05:00 -1°C° 0 mm 2 mps 769 mmHg 62%
    06:00 -1°C° 0 mm 2 mps 769 mmHg 64%
    07:00 -1°C° 0 mm 2 mps 769 mmHg 65%
    08:00 0°C° 0 mm 3 mps 769 mmHg 64%
    09:00 +2°C° 0 mm 3 mps 770 mmHg 63%
    10:00 +3°C° 0 mm 3 mps 770 mmHg 62%
    11:00 +4°C° 0 mm 3 mps 770 mmHg 63%
    12:00 +5°C° 0 mm 4 mps 769 mmHg 65%
    13:00 +7°C° 0 mm 4 mps 769 mmHg 66%
    14:00 +8°C° 0 mm 3 mps 769 mmHg 67%
    15:00 +8°C° 0 mm 3 mps 769 mmHg 69%
    16:00 +8°C° 0 mm 2 mps 769 mmHg 70%
    17:00 +7°C° 0 mm 2 mps 769 mmHg 73%
    18:00 +5°C° 0 mm 2 mps 769 mmHg 76%
    19:00 +4°C° 0 mm 2 mps 770 mmHg 80%
    20:00 +3°C° 0 mm 2 mps 770 mmHg 79%
    21:00 +3°C° 0 mm 2 mps 770 mmHg 79%
    22:00 +2°C° 0 mm 2 mps 770 mmHg 78%
    23:00 +2°C° 0 mm 2 mps 770 mmHg 78%
    Show more